Location: Aufkirchen
(47.9603°N, 11.3653°E)
Time: 04:13:29
(UTC+01:00)

Courier 1B Rocket - Pass Details

Date: 13 December 2021
Orbit: 920 x 1202 km, 28.2° (Epoch: 20 January)

Event Time Altitude Azimuth Distance (km) Brightness Sun altitude
Rises 19:46:52 0° 225° (SW) 3,960 8.7 -33.2°
Reaches altitude 10° 19:51:24 10° 201° (SSW) 2,938 7.7 -34.0°
Enters shadow 19:53:29 13° 184° (S) 2,688 7.3 -34.3°
